Regional Weather Roundup
Issued by NWS

Home | Current Version | Previous Version | Graphics & Text | Print | Product List | Glossary On
Versions: 1 2 3 4 5 6 7 8 9 10 11 12 13 14 15 16 17 18 19 20 21 22 23 24 25 26 27 28 29 30 31 32 33 34 35 36 37 38 39 40 41 42 43 44 45 46 47 48 49 50
000
ASUS45 KTFX 290419
RWRMT
MONTANA HOURLY WEATHER ROUNDUP
NATIONAL WEATHER SERVICE GREAT FALLS MT
919 PM MST WED JAN 28 2015

NOTE: "FAIR" INDICATES FEW OR NO CLOUDS BELOW 12000 FEET WITH NO
SIGNIFICANT WEATHER AND/OR OBSTRUCTIONS TO VISIBILITY.

* THESE STATIONS ARE NOT UNDER NWS QUALITY CONTROL. THEY DO NOT
   REPORT WEATHER SUCH AS PRECIPITATION OR FOG.

MTZ001>007-043-290500-
WEST OF THE DIVIDE
CITY           SKY/WX    TMP DP  RH WIND       PRES   REMARKS
KALISPELL      FOG       18  18 100 NE3       30.39R
MISSOULA       CLEAR     32  27  82 CALM      30.40R
BUTTE          CLEAR     27  21  78 S7        30.38R WCI  19
MULLAN PASS    CLEAR     27  25  92 S5        30.34S WCI  21
* ANACONDA     CLEAR     28  21  75 SW5        N/A   WCI  22
* ESSEX        N/A       27  25  92 N/A        N/A
* EUREKA APT   CLEAR     28  25  89 CALM      30.41R
* HAMILTON APT CLEAR     34  23  64 S3        30.39R
* LIBBY APT    CLEAR     25  21  85 CALM      30.44R
* LINCOLN      N/A       27  23  85 NW1        N/A
* LOOKOUT PASS N/A       29  26  89 N/A        N/A
* POLSON       N/A       32  25  75 N/A        N/A
* RONAN APT    CLEAR     28  28 100 N/A        N/A
* SEELEY LAKE  N/A       24  20  85 NE1        N/A
* THOMP F APT  CLEAR     30  29  96 N/A        N/A
$$

MTZ008-052>055-290500-
SOUTHWEST MONTANA
CITY           SKY/WX    TMP DP  RH WIND       PRES   REMARKS
BOZEMAN        MOCLDY    30  27  89 CALM      30.38R
DILLON         CLEAR     30  21  69 SE5       30.35R WCI  25
* W YELLOWSTON CLEAR     29  28  96 SW2        N/A
* THREE FORKS  CLEAR     30  30 100 N/A        N/A
* TWIN BRIDGES CLEAR     37  19  48 N10G16     N/A   WCI  30
* BOULDER HILL N/A       29  14  53 W1         N/A
* MONIDA PASS  N/A       27  27 100 SE8        N/A   WCI  19
* RAYNOLDS PAS N/A       29  12  49 SE11       N/A   WCI  19
* WHITEHALL    N/A       33  22  64 N4         N/A
* WISE RIVER   N/A       28  18  66 S3         N/A
$$

MTZ009>010-012-014-046-048-049-054-290500-
EAST SLOPES AND CENTRAL MONTANA
CITY           SKY/WX    TMP DP  RH WIND       PRES   REMARKS
CUT BANK       CLEAR     28  27  96 S8        30.34S WCI  20
HELENA         PTCLDY    36  23  59 S5        30.36S WCI  32
MALMSTROM AFB  PTCLDY    28  28 100 SE6       30.38R WCI  21
* CONRAD       CLEAR     27  23  85 CALM       N/A
* DEARBORN     N/A       37  29  73 N/A        N/A
* EAST GLACIER N/A       31  21  66 W8         N/A   WCI  24
* MONARCH      N/A       31  22  69 S7         N/A   WCI  24
* PENDROY      N/A       29  29 100 SW5        N/A   WCI  24
* ROGERS PASS  N/A       28  23  81 NW1        N/A
* SWEET GRASS  N/A       31  31 100 S11        N/A   WCI  22
* WHITE SULPH  N/A       32  27  82 S5         N/A   WCI  27
$$

MTZ011-013-016-021-035-040-045-047-050-051-290500-
NORTH CENTRAL MONTANA
CITY           SKY/WX    TMP DP  RH WIND       PRES   REMARKS
HAVRE          CLEAR     27  25  92 SW3       30.39R
LEWISTOWN      PTCLDY    28  27  96 S6        30.37S WCI  21
* N BAR RANCH  FAIR      28  23  81 CALM      30.37R
* CHINOOK      CLEAR     27  25  92 S5        30.40R VSB 3    WCI  21
* CHESTER      N/A       27  25  92 N/A        N/A
* DENTON       N/A       29  29 100 S8         N/A   WCI  21
* GEYSER       N/A       25  24  96 S6         N/A   WCI  18
* JUDITH GAP   N/A       29  29 100 N16        N/A   WCI  17
* LOMA         N/A       30  29  96 W1         N/A
$$

MTZ017>020-022>027-061-062-290500-
NORTHEAST MONTANA
CITY           SKY/WX    TMP DP  RH WIND       PRES   REMARKS
GLASGOW        CLEAR     30  27  89 NW8       30.35R WCI  22
GLENDIVE       CLOUDY    34  27  76 W14       30.32R WCI  24
JORDAN         CLEAR     28  27  96 W7        30.36R WCI  21
SIDNEY         CLOUDY    36  28  73 NW6       30.32R WCI  31
WOLF POINT     MOCLDY    34  27  76 W9        30.35R WCI  27
* BEAVER HILL  N/A       32  27  82 NW15       N/A   WCI  22
* CIRCLE       N/A       31  29  92 W4         N/A
* LINDSAY DVD  N/A       31  29  92 W16G21     N/A   WCI  20
* NAVAJO       N/A       30  24  78 N16G22     N/A   WCI  19
* PLENTYWOOD A CLEAR     30  25  82 NW23G30   30.27R WCI  17
* POPLAR APT   CLEAR     34  27  76 N/A       30.32R
* SACO         N/A       28  26  92 W7         N/A   WCI  21
* SCOBEY APT   PTCLDY    30  21  69 NW15G21    N/A   WCI  19
$$

MTZ028>042-056>058-290500-
SOUTHCENTRAL AND SOUTHEAST MONTANA
CITY           SKY/WX    TMP DP  RH WIND       PRES   REMARKS
BAKER          CLOUDY    32  28  85 NW13      30.30R WCI  22
BILLINGS       CLOUDY    37  27  67 CALM      30.38R
LIVINGSTON     CLOUDY    37  27  67 E8        30.36R WCI  31
MILES CITY     CLEAR     28  27  96 W8        30.36R WCI  20
* BIG TIMBER A PTCLDY    36  28  73 CALM      30.39R
* FORSYTH APT  CLEAR     34  27  76 W6        30.38R WCI  29
* LAUREL APT   MOCLDY    37  21  52 N/A        N/A
* ROUNDUP APT  PTCLDY    36  25  64 N/A        N/A
* ALZADA       N/A       32  28  85 W11        N/A   WCI  23
* HYSHAM       N/A       33  27  79 NW2        N/A
* LAME DEER    N/A       30  24  78 W8         N/A   WCI  22
* REED POINT   N/A       38  26  62 W2         N/A
* ROSCOE HILL  N/A       33  29  85 E6         N/A   WCI  27
$$

REGIONAL REPORTS...DAKOTAS
CITY           SKY/WX    TMP DP  RH WIND       PRES   REMARKS
WILLISTON      CLOUDY    34  28  79 NW12      30.26R WCI  25
DICKINSON      CLOUDY    32  27  82 NW24G29   30.22R WCI  19
BEACH          CLOUDY    32  30  92 NW20      30.28S WCI  20
CROSBY         CLOUDY    27  27 100 N23G35    30.26R WCI  13
TIOGA          CLOUDY    28  28 100 N18G28    30.26R WCI  15
WATFORD CITY   CLOUDY    32  28  85 NW12      30.24R WCI  23
BISMARCK       CLOUDY    34  28  79 NW20G29   30.19R WCI  23
GRAND FORKS    CLOUDY    27  21  78 N17G25    30.04R WCI  14
FARGO          CLOUDY    30  28  92 NW22      30.01R WCI  17
BUFFALO SD     PTCLDY    34  27  76 NW24G35   30.20R WCI  22
RAPID CITY     CLEAR     34  27  76 N21       30.25R WCI  22
$$

REGIONAL REPORTS...WYOMING/IDAHO/WASHINGTON
CITY           SKY/WX    TMP DP  RH WIND       PRES   REMARKS
GILLETTE       PTCLDY    30  27  89 W8        30.32R WCI  22
SHERIDAN       CLOUDY    37  30  76 NW15      30.36R WCI  28
CODY           CLOUDY    36  30  79 NW8       30.36R WCI  30
YELLOWSTONE LA PTCLDY    16  12  84 CALM      30.38R
SALMON         CLEAR     23  23 100 E3        30.40R
MULLAN PASS    CLEAR     27  25  92 S5        30.34S WCI  21
SAND POINT     FOG       32  32 100 CALM      30.44S VSB 3
SPOKANE        FOG       30  30 100 N3        30.41R VSB 3
$$

REGIONAL REPORTS...ALBERTA
CITY           SKY/WX    TMP DP  RH WIND       PRES   REMARKS
CALGARY        MOCLDY    30  25  82 VRB2      30.30R
LETHBRIDGE     FAIR      28  27  96 S8        30.32F WCI  20
MEDICINE HAT   FOG       28  28 100 VRB2      30.37S
EDMONTON       LGT SNOW  23  23 100 SE6       30.36R VSB 1 3/4 WCI  16
WATERTON GATE  N/A       37  25  62 SW15G23    N/A   WCI  28
CARDSTON       N/A       32  25  75 SW8        N/A   WCI  25
MILK RIVER     N/A       28  27  96 S6         N/A   WCI  21
$$

REGIONAL REPORTS...SASKATCHEWAN
CITY           SKY/WX    TMP DP  RH WIND       PRES   REMARKS
SWIFT CURRENT  MOCLDY    23  21  92 NW12      30.33R WCI  11
REGINA         CLOUDY    23  21  92 N17       30.30R WCI   9
VAL MARIE      N/A       27  25  92 NW8        N/A   WCI  19
ASSINIBOIA     N/A       27  23  85 NW17       N/A   WCI  14
CORONACH       N/A       27  23  85 NW24G32    N/A   WCI  12

$$




USA.gov is the U.S. government's official web portal to all federal, state and local government web resources and services.